QPF
0.03 0.04 0.03 0.02 0.01 0.01 0.01 0.01 0.01 0.01 0.01 0.01 0.02 0.03 0.04 0.03 0.01 0.01 0.01 0.00 0.00 0.00 0.00 0.00 0.00 0.00 0.00 0.00 0.00 0.00 0.00 0.00 0.00 0.00 0.00 0.00 0.00 0.00 0.00 0.00 0.00 0.00 0.00 0.00
0.01 0.02 0.01 0.01 0.00 0.00 0.01 0.01 0.01 0.00 0.00 0.01 0.02 0.04 0.04 0.01 0.00 0.00 0.00 0.00 0.00 0.00 0.00 0.00 0.00 0.00 0.00 0.00 0.00 0.00 0.00 0.00 0.00 0.00 0.00 0.00 0.00 0.00 0.00 0.00 0.00 0.00 0.00 0.00
0.01 0.01 0.01 0.01 0.01 0.01 0.00 0.01 0.01 0.00 0.00 0.01 0.02 0.02 0.02 0.00 0.00 0.00 0.00 0.00 0.00 0.00 0.00 0.00 0.00 0.01 0.00 0.00 0.00 0.00 0.00 0.00 0.00 0.00 0.00 0.00 0.00 0.00 0.00 0.00 0.00 0.00 0.00 0.00
0.01 0.01 0.01 0.01 0.01 0.01 0.00 0.00 0.01 0.00 0.00 0.00 0.01 0.01 0.00 0.00 0.00 0.00 0.00 0.00 0.00 0.00 0.00 0.00 0.00 0.00 0.00 0.00 0.00 0.00 0.00 0.00 0.00 0.00 0.00 0.00 0.00 0.00 0.00 0.00 0.00 0.00 0.00 0.00
0.02 0.01 0.00 0.00 0.01 0.01 0.01 0.00 0.00 0.00 0.00 0.00 0.00 0.00 0.00 0.00 0.00 0.00 0.00 0.00 0.00 0.00 0.00 0.00 0.00 0.00 0.00 0.00 0.00 0.00 0.00 0.00 0.00 0.00 0.00 0.00 0.00 0.00 0.00 0.00 0.00 0.00 0.00 0.00
0.01 0.01 0.00 0.01 0.01 0.01 0.01 0.01 0.01 0.00 0.00 0.00 0.00 0.00 0.00 0.00 0.00 0.00 0.00 0.00 0.00 0.00 0.00 0.00 0.00 0.00 0.00 0.00 0.00 0.00 0.00 0.00 0.00 0.00 0.00 0.00 0.00 0.00 0.00 0.00 0.00 0.00 0.00 0.00
0.02 0.02 0.01 0.01 0.01 0.01 0.01 0.01 0.00 0.00 0.00 0.00 0.00 0.00 0.00 0.00 0.00 0.00 0.00 0.00 0.00 0.00 0.00 0.00 0.00 0.00 0.00 0.00 0.00 0.00 0.00 0.00 0.00 0.00 0.00 0.00 0.00 0.00 0.00 0.00 0.00 0.00 0.00 0.00
0.01 0.01 0.01 0.01 0.00 0.00 0.00 0.00 0.00 0.00 0.00 0.00 0.00 0.00 0.00 0.00 0.00 0.00 0.00 0.00 0.00 0.00 0.00 0.00 0.00 0.00 0.00 0.00 0.00 0.00 0.00 0.00 0.00 0.00 0.00 0.00 0.00 0.00 0.00 0.00 0.00 0.00 0.00 0.00
0.00 0.01 0.01 0.01 0.00 0.00 0.00 0.00 0.00 0.00 0.00 0.00 0.00 0.00 0.00 0.00 0.00 0.00 0.00 0.00 0.00 0.00 0.00 0.00 0.00 0.00 0.00 0.00 0.00 0.00 0.00 0.00 0.00 0.00 0.00 0.00 0.00 0.00 0.00 0.00 0.00 0.00 0.00 0.00
0.00 0.01 0.01 0.00 0.00 0.00 0.00 0.00 0.00 0.00 0.00 0.00 0.00 0.00 0.00 0.00 0.00 0.00 0.00 0.00 0.00 0.00 0.00 0.00 0.00 0.00 0.00 0.00 0.00 0.00 0.00 0.00 0.00 0.00 0.00 0.00 0.00 0.00 0.00 0.00 0.00 0.00 0.00 0.00
0.00 0.00 0.00 0.00 0.00 0.00 0.00 0.00 0.00 0.00 0.00 0.00 0.00 0.00 0.00 0.00 0.00 0.00 0.00 0.00 0.00 0.00 0.00 0.00 0.00 0.00 0.00 0.00 0.00 0.00 0.00 0.00 0.00 0.00 0.00 0.00 0.00 0.00 0.00 0.00 0.00 0.00 0.00 0.00
0.00 0.00 0.00 0.00 0.00 0.00 0.00 0.00 0.00 0.00 0.00 0.00 0.00 0.00 0.00 0.00 0.00 0.00 0.00 0.00 0.00 0.00 0.00 0.00 0.00 0.00 0.00 0.00 0.00 0.00 0.00 0.00 0.00 0.00 0.00 0.00 0.00 0.00 0.00 0.00 0.00 0.00 0.00 0.00
0.00 0.00 0.00 0.00 0.00 0.00 0.00 0.00 0.00 0.00 0.00 0.00 0.00 0.00 0.00 0.00 0.00 0.00 0.00 0.00 0.00 0.00 0.00 0.00 0.00 0.00 0.00 0.00 0.00 0.00 0.00 0.00 0.00 0.00 0.00 0.00 0.00 0.00 0.00 0.00 0.00 0.00 0.00 0.00
0.00 0.00 0.00 0.00 0.00 0.00 0.00 0.00 0.00 0.00 0.00 0.00 0.00 0.00 0.00 0.00 0.00 0.00 0.00 0.00 0.00 0.00 0.00 0.00 0.00 0.00 0.00 0.00 0.00 0.00 0.00 0.00 0.00 0.00 0.00 0.00 0.00 0.00 0.00 0.00 0.00 0.00 0.00 0.00
0.00 0.00 0.00 0.00 0.00 0.00 0.00 0.00 0.00 0.00 0.00 0.00 0.00 0.00 0.00 0.00 0.00 0.00 0.00 0.00 0.00 0.00 0.00 0.00 0.00 0.00 0.00 0.00 0.00 0.00 0.00 0.00 0.00 0.00 0.00 0.00 0.00 0.00 0.00 0.00 0.00 0.00 0.00 0.00
0.00 0.00 0.00 0.00 0.00 0.00 0.00 0.00 0.00 0.00 0.00 0.00 0.00 0.00 0.00 0.00 0.00 0.00 0.00 0.00 0.00 0.00 0.00 0.00 0.00 0.00 0.00 0.00 0.00 0.00 0.00 0.00 0.00 0.00 0.00 0.00 0.00 0.00 0.00 0.00 0.00 0.00 0.00 0.00
0.00 0.00 0.00 0.00 0.00 0.00 0.00 0.00 0.00 0.00 0.00 0.00 0.00 0.00 0.00 0.00 0.00 0.00 0.00 0.00 0.00 0.00 0.00 0.00 0.00 0.00 0.00 0.00 0.00 0.00 0.00 0.00 0.00 0.00 0.00 0.00 0.00 0.00 0.00 0.00 0.00 0.00 0.00 0.00
0.00 0.00 0.00 0.00 0.00 0.00 0.00 0.00 0.00 0.00 0.00 0.00 0.00 0.00 0.00 0.00 0.00 0.00 0.00 0.00 0.00 0.00 0.00 0.00 0.00 0.00 0.00 0.00 0.00 0.00 0.00 0.00 0.00 0.00 0.00 0.00 0.00 0.00 0.00 0.00 0.00 0.00 0.00 0.00
0.00 0.00 0.00 0.00 0.00 0.00 0.00 0.00 0.00 0.00 0.00 0.00 0.00 0.00 0.00 0.00 0.00 0.00 0.00 0.00 0.00 0.00 0.00 0.00 0.00 0.00 0.00 0.00 0.00 0.00 0.00 0.00 0.00 0.00 0.00 0.00 0.00 0.00 0.00 0.00 0.00 0.00 0.00 0.00
0.00 0.00 0.00 0.00 0.00 0.00 0.00 0.00 0.00 0.00 0.00 0.00 0.00 0.00 0.00 0.00 0.00 0.00 0.00 0.00 0.00 0.00 0.00 0.00 0.00 0.00 0.00 0.00 0.00 0.00 0.00 0.00 0.00 0.00 0.00 0.00 0.00 0.00 0.00 0.00 0.00 0.00 0.00 0.00
0.00 0.00 0.00 0.00 0.00 0.00 0.00 0.00 0.00 0.00 0.00 0.00 0.00 0.00 0.00 0.00 0.00 0.00 0.00 0.00 0.00 0.00 0.00 0.00 0.00 0.00 0.00 0.00 0.00 0.00 0.00 0.00 0.00 0.00 0.00 0.00 0.00 0.00 0.00 0.00 0.00 0.00 0.00 0.00
0.00 0.00 0.00 0.00 0.00 0.00 0.00 0.00 0.00 0.00 0.00 0.00 0.00 0.00 0.00 0.00 0.00 0.00 0.00 0.00 0.00 0.00 0.00 0.00 0.00 0.00 0.00 0.00 0.00 0.00 0.00 0.00 0.00 0.00 0.00 0.00 0.00 0.00 0.00 0.00 0.00 0.00 0.00 0.00
0.00 0.00 0.00 0.00 0.00 0.00 0.00 0.00 0.00 0.00 0.00 0.00 0.00 0.00 0.00 0.00 0.00 0.00 0.00 0.00 0.00 0.00 0.00 0.00 0.00 0.00 0.00 0.00 0.00 0.00 0.00 0.00 0.00 0.00 0.00 0.00 0.00 0.00 0.00 0.00 0.00 0.00 0.00 0.00
0.00 0.00 0.00 0.00 0.00 0.00 0.00 0.00 0.00 0.00 0.00 0.00 0.00 0.00 0.00 0.00 0.00 0.00 0.00 0.00 0.00 0.00 0.00 0.00 0.00 0.00 0.00 0.00 0.00 0.00 0.00 0.00 0.00 0.00 0.00 0.00 0.00 0.00 0.00 0.00 0.00 0.00 0.00 0.00
0.00 0.00 0.00 0.00 0.00 0.00 0.00 0.00 0.00 0.00 0.00 0.00 0.00 0.00 0.00 0.00 0.00 0.00 0.00 0.00 0.00 0.00 0.00 0.00 0.00 0.00 0.00 0.00 0.00 0.00 0.00 0.00 0.00 0.00 0.00 0.00 0.00 0.00 0.00 0.00 0.00 0.00 0.00 0.01
0.00 0.00 0.00 0.00 0.00 0.00 0.00 0.00 0.00 0.00 0.00 0.00 0.00 0.00 0.00 0.00 0.00 0.00 0.00 0.00 0.00 0.00 0.00 0.00 0.00 0.00 0.00 0.00 0.00 0.00 0.00 0.00 0.00 0.00 0.00 0.00 0.00 0.00 0.00 0.00 0.00 0.00 0.01 0.01
MSLP
1013.52 1013.82 1014.01 1014.11 1014.12 1014.09 1014.03 1013.98 1013.94 1013.90 1013.85 1013.77 1013.62 1013.40 1013.11 1012.78 1012.43 1012.11 1011.84 1011.65 1011.57 1011.58 1011.68 1011.85 1012.07 1012.32 1012.59 1012.87 1013.17 1013.48 1013.80 1014.13 1014.45 1014.75 1015.01 1015.23 1015.39 1015.50 1015.55 1015.56 1015.55 1015.51 1015.47 1015.43
1013.75 1013.94 1014.03 1014.06 1014.03 1013.99 1013.97 1013.98 1014.03 1014.09 1014.13 1014.12 1014.03 1013.83 1013.53 1013.15 1012.72 1012.29 1011.91 1011.62 1011.43 1011.35 1011.39 1011.51 1011.70 1011.94 1012.21 1012.50 1012.81 1013.14 1013.49 1013.84 1014.20 1014.54 1014.84 1015.10 1015.30 1015.44 1015.51 1015.54 1015.54 1015.52 1015.49 1015.46
1013.83 1013.93 1013.96 1013.95 1013.92 1013.91 1013.95 1014.05 1014.20 1014.36 1014.50 1014.56 1014.52 1014.34 1014.02 1013.59 1013.08 1012.56 1012.07 1011.67 1011.37 1011.20 1011.16 1011.22 1011.37 1011.58 1011.83 1012.11 1012.43 1012.76 1013.13 1013.51 1013.89 1014.26 1014.61 1014.91 1015.14 1015.31 1015.41 1015.45 1015.46 1015.45 1015.44 1015.43
1013.80 1013.84 1013.84 1013.82 1013.82 1013.87 1014.00 1014.19 1014.44 1014.70 1014.93 1015.06 1015.06 1014.90 1014.57 1014.10 1013.53 1012.93 1012.35 1011.84 1011.45 1011.19 1011.07 1011.06 1011.15 1011.32 1011.53 1011.80 1012.09 1012.43 1012.79 1013.18 1013.58 1013.98 1014.35 1014.68 1014.94 1015.13 1015.25 1015.31 1015.33 1015.33 1015.33 1015.34
1013.70 1013.71 1013.71 1013.71 1013.77 1013.89 1014.10 1014.39 1014.74 1015.09 1015.39 1015.59 1015.63 1015.49 1015.17 1014.67 1014.07 1013.41 1012.76 1012.18 1011.71 1011.37 1011.17 1011.09 1011.12 1011.23 1011.40 1011.62 1011.89 1012.19 1012.53 1012.91 1013.31 1013.71 1014.09 1014.43 1014.71 1014.91 1015.05 1015.12 1015.15 1015.15 1015.16 1015.18
1013.58 1013.58 1013.60 1013.64 1013.75 1013.95 1014.24 1014.61 1015.04 1015.47 1015.85 1016.11 1016.20 1016.10 1015.79 1015.31 1014.70 1014.02 1013.34 1012.71 1012.18 1011.78 1011.51 1011.37 1011.33 1011.37 1011.48 1011.64 1011.85 1012.10 1012.40 1012.73 1013.10 1013.47 1013.84 1014.17 1014.44 1014.65 1014.79 1014.86 1014.90 1014.91 1014.92 1014.95
1013.46 1013.47 1013.51 1013.59 1013.75 1014.01 1014.36 1014.81 1015.30 1015.80 1016.24 1016.57 1016.72 1016.68 1016.42 1015.99 1015.41 1014.75 1014.07 1013.43 1012.87 1012.42 1012.10 1011.89 1011.78 1011.75 1011.78 1011.86 1011.99 1012.17 1012.39 1012.65 1012.95 1013.27 1013.59 1013.89 1014.14 1014.33 1014.46 1014.54 1014.57 1014.59 1014.61 1014.64
1013.34 1013.37 1013.43 1013.54 1013.74 1014.04 1014.44 1014.93 1015.48 1016.04 1016.55 1016.94 1017.17 1017.21 1017.05 1016.69 1016.18 1015.57 1014.92 1014.30 1013.73 1013.26 1012.89 1012.63 1012.44 1012.33 1012.28 1012.27 1012.30 1012.38 1012.50 1012.67 1012.87 1013.11 1013.35 1013.59 1013.80 1013.96 1014.07 1014.13 1014.17 1014.18 1014.20 1014.25
1013.22 1013.26 1013.33 1013.47 1013.68 1014.01 1014.43 1014.96 1015.55 1016.16 1016.74 1017.21 1017.54 1017.69 1017.63 1017.38 1016.97 1016.44 1015.86 1015.27 1014.72 1014.23 1013.83 1013.51 1013.26 1013.06 1012.92 1012.81 1012.74 1012.70 1012.71 1012.76 1012.85 1012.98 1013.13 1013.29 1013.43 1013.55 1013.63 1013.67 1013.69 1013.71 1013.73 1013.78
1013.08 1013.13 1013.22 1013.36 1013.59 1013.92 1014.37 1014.91 1015.53 1016.19 1016.83 1017.39 1017.83 1018.09 1018.16 1018.03 1017.73 1017.31 1016.80 1016.26 1015.73 1015.24 1014.81 1014.44 1014.14 1013.87 1013.64 1013.44 1013.26 1013.12 1013.01 1012.93 1012.91 1012.92 1012.96 1013.02 1013.09 1013.14 1013.18 1013.20 1013.20 1013.20 1013.22 1013.26
1012.94 1013.01 1013.11 1013.27 1013.50 1013.83 1014.27 1014.82 1015.46 1016.16 1016.85 1017.49 1018.03 1018.40 1018.60 1018.60 1018.42 1018.10 1017.68 1017.20 1016.69 1016.21 1015.76 1015.36 1015.01 1014.68 1014.38 1014.10 1013.84 1013.60 1013.38 1013.20 1013.06 1012.96 1012.89 1012.85 1012.83 1012.81 1012.79 1012.77 1012.74 1012.72 1012.72 1012.75
1012.83 1012.93 1013.06 1013.22 1013.45 1013.77 1014.21 1014.75 1015.40 1016.11 1016.84 1017.54 1018.15 1018.63 1018.94 1019.05 1018.99 1018.76 1018.42 1018.00 1017.54 1017.07 1016.62 1016.20 1015.82 1015.45 1015.11 1014.78 1014.46 1014.14 1013.85 1013.57 1013.33 1013.13 1012.96 1012.82 1012.71 1012.62 1012.53 1012.45 1012.37 1012.31 1012.27 1012.27
1012.80 1012.95 1013.10 1013.28 1013.51 1013.82 1014.23 1014.75 1015.38 1016.08 1016.82 1017.54 1018.21 1018.75 1019.14 1019.35 1019.38 1019.25 1018.99 1018.63 1018.22 1017.78 1017.35 1016.93 1016.54 1016.17 1015.81 1015.45 1015.10 1014.74 1014.39 1014.06 1013.74 1013.46 1013.20 1012.97 1012.77 1012.59 1012.43 1012.28 1012.14 1012.01 1011.92 1011.86
1012.90 1013.09 1013.27 1013.47 1013.69 1013.98 1014.36 1014.83 1015.41 1016.07 1016.78 1017.50 1018.17 1018.75 1019.19 1019.48 1019.59 1019.54 1019.36 1019.08 1018.72 1018.33 1017.94 1017.55 1017.18 1016.82 1016.46 1016.11 1015.75 1015.39 1015.01 1014.64 1014.27 1013.93 1013.60 1013.29 1013.01 1012.75 1012.50 1012.26 1012.04 1011.83 1011.65 1011.51
1013.12 1013.36 1013.57 1013.78 1013.99 1014.25 1014.57 1014.97 1015.47 1016.06 1016.70 1017.37 1018.02 1018.60 1019.08 1019.41 1019.60 1019.64 1019.55 1019.35 1019.07 1018.75 1018.41 1018.07 1017.73 1017.41 1017.08 1016.74 1016.40 1016.04 1015.66 1015.27 1014.88 1014.49 1014.11 1013.74 1013.38 1013.04 1012.70 1012.37 1012.05 1011.74 1011.46 1011.21
1013.43 1013.71 1013.95 1014.15 1014.34 1014.55 1014.80 1015.11 1015.51 1015.99 1016.54 1017.13 1017.73 1018.30 1018.79 1019.17 1019.43 1019.56 1019.56 1019.47 1019.29 1019.06 1018.79 1018.51 1018.22 1017.93 1017.63 1017.32 1017.00 1016.65 1016.28 1015.89 1015.48 1015.07 1014.65 1014.23 1013.81 1013.39 1012.97 1012.54 1012.12 1011.70 1011.31 1010.94
1013.76 1014.06 1014.30 1014.50 1014.65 1014.80 1014.96 1015.17 1015.45 1015.82 1016.26 1016.76 1017.30 1017.84 1018.34 1018.78 1019.11 1019.34 1019.46 1019.48 1019.42 1019.28 1019.10 1018.88 1018.64 1018.38 1018.11 1017.82 1017.50 1017.16 1016.80 1016.41 1016.00 1015.58 1015.13 1014.68 1014.21 1013.72 1013.22 1012.71 1012.18 1011.66 1011.15 1010.67
1014.01 1014.30 1014.54 1014.70 1014.81 1014.89 1014.97 1015.08 1015.25 1015.50 1015.84 1016.26 1016.74 1017.27 1017.79 1018.28 1018.71 1019.05 1019.29 1019.43 1019.48 1019.45 1019.35 1019.19 1018.98 1018.75 1018.48 1018.19 1017.87 1017.53 1017.17 1016.78 1016.37 1015.93 1015.48 1015.00 1014.49 1013.96 1013.40 1012.81 1012.20 1011.59 1010.97 1010.37
1014.08 1014.36 1014.56 1014.69 1014.75 1014.76 1014.76 1014.79 1014.86 1015.03 1015.29 1015.66 1016.11 1016.64 1017.20 1017.76 1018.28 1018.73 1019.10 1019.36 1019.52 1019.57 1019.54 1019.42 1019.23 1019.00 1018.72 1018.41 1018.08 1017.72 1017.35 1016.96 1016.54 1016.11 1015.65 1015.15 1014.63 1014.06 1013.46 1012.82 1012.15 1011.45 1010.76 1010.07
1013.95 1014.18 1014.33 1014.42 1014.43 1014.40 1014.35 1014.32 1014.34 1014.46 1014.68 1015.03 1015.48 1016.03 1016.65 1017.28 1017.89 1018.45 1018.93 1019.29 1019.53 1019.66 1019.66 1019.56 1019.38 1019.12 1018.82 1018.48 1018.12 1017.74 1017.36 1016.96 1016.54 1016.11 1015.65 1015.15 1014.61 1014.03 1013.40 1012.73 1012.01 1011.27 1010.52 1009.77
1013.61 1013.77 1013.87 1013.91 1013.89 1013.83 1013.76 1013.72 1013.74 1013.86 1014.09 1014.46 1014.94 1015.54 1016.21 1016.91 1017.61 1018.25 1018.80 1019.23 1019.53 1019.69 1019.71 1019.61 1019.41 1019.13 1018.79 1018.42 1018.03 1017.63 1017.22 1016.82 1016.40 1015.97 1015.51 1015.02 1014.48 1013.89 1013.24 1012.55 1011.82 1011.05 1010.26 1009.48
1013.10 1013.19 1013.24 1013.24 1013.21 1013.15 1013.10 1013.09 1013.15 1013.32 1013.60 1014.02 1014.56 1015.22 1015.94 1016.70 1017.45 1018.14 1018.72 1019.19 1019.50 1019.66 1019.67 1019.55 1019.32 1019.01 1018.64 1018.24 1017.83 1017.42 1017.00 1016.59 1016.18 1015.75 1015.29 1014.79 1014.25 1013.65 1013.00 1012.30 1011.55 1010.78 1009.99 1009.19
1012.52 1012.53 1012.52 1012.50 1012.47 1012.45 1012.45 1012.52 1012.66 1012.91 1013.28 1013.77 1014.38 1015.09 1015.85 1016.64 1017.40 1018.10 1018.68 1019.13 1019.42 1019.56 1019.54 1019.39 1019.13 1018.79 1018.40 1017.99 1017.57 1017.15 1016.74 1016.33 1015.91 1015.48 1015.01 1014.50 1013.94 1013.33 1012.67 1011.96 1011.21 1010.45 1009.66 1008.88
1011.93 1011.86 1011.80 1011.77 1011.77 1011.80 1011.90 1012.06 1012.32 1012.68 1013.15 1013.73 1014.40 1015.15 1015.93 1016.71 1017.45 1018.10 1018.64 1019.03 1019.27 1019.36 1019.30 1019.12 1018.84 1018.49 1018.10 1017.69 1017.28 1016.87 1016.46 1016.05 1015.63 1015.18 1014.68 1014.14 1013.56 1012.92 1012.23 1011.51 1010.77 1010.01 1009.25 1008.49
1011.38 1011.24 1011.15 1011.12 1011.16 1011.27 1011.47 1011.75 1012.14 1012.62 1013.19 1013.85 1014.57 1015.33 1016.10 1016.84 1017.52 1018.10 1018.55 1018.87 1019.04 1019.06 1018.96 1018.75 1018.46 1018.12 1017.74 1017.35 1016.96 1016.56 1016.16 1015.75 1015.30 1014.82 1014.28 1013.70 1013.06 1012.38 1011.66 1010.92 1010.17 1009.43 1008.69 1007.97
1010.89 1010.68 1010.57 1010.56 1010.66 1010.86 1011.16 1011.57 1012.08 1012.67 1013.34 1014.06 1014.81 1015.56 1016.29 1016.97 1017.56 1018.04 1018.39 1018.62 1018.71 1018.67 1018.53 1018.30 1018.01 1017.69 1017.33 1016.97 1016.60 1016.22 1015.81 1015.38 1014.89 1014.36 1013.77 1013.12 1012.41 1011.68 1010.92 1010.16 1009.41 1008.68 1007.97 1007.29
Thickness
5714 5715 5713 5722 5729 5731 5733 5733 5732 5739 5749 5748 5748 5752 5760 5765 5766 5766 5767 5769 5770 5770 5773 5773 5770 5767 5763 5760 5758 5754 5749 5745 5741 5737 5733 5730 5728 5725 5723 5720 5716 5712 5709 5707
5707 5709 5722 5728 5728 5730 5732 5731 5733 5739 5747 5748 5748 5752 5760 5762 5762 5764 5766 5768 5769 5769 5770 5769 5767 5765 5763 5760 5756 5753 5749 5745 5741 5736 5734 5730 5726 5724 5722 5718 5714 5711 5708 5705
5710 5715 5724 5725 5724 5726 5729 5731 5733 5735 5742 5749 5748 5746 5753 5759 5764 5763 5764 5766 5768 5766 5767 5768 5766 5764 5762 5759 5756 5752 5748 5744 5739 5736 5732 5727 5724 5722 5720 5716 5714 5710 5706 5703
5712 5719 5721 5722 5723 5729 5723 5734 5735 5736 5740 5737 5745 5730 5745 5754 5757 5758 5760 5763 5764 5765 5765 5765 5764 5762 5761 5759 5756 5753 5747 5743 5739 5734 5730 5727 5722 5720 5718 5716 5713 5710 5706 5703
5710 5718 5721 5720 5726 5731 5730 5736 5738 5740 5741 5740 5743 5740 5739 5753 5748 5752 5756 5758 5760 5762 5762 5762 5762 5761 5760 5758 5754 5751 5746 5741 5737 5733 5729 5725 5723 5721 5719 5715 5712 5710 5707 5703
5717 5726 5729 5729 5733 5735 5735 5736 5737 5741 5744 5726 5731 5736 5727 5740 5741 5746 5752 5755 5757 5758 5759 5759 5759 5758 5756 5754 5750 5747 5743 5739 5735 5731 5728 5724 5722 5718 5715 5713 5711 5709 5708 5704
5713 5722 5730 5734 5728 5731 5735 5732 5723 5721 5721 5720 5731 5732 5726 5737 5742 5743 5745 5749 5753 5755 5755 5755 5754 5753 5751 5749 5746 5744 5740 5736 5733 5730 5727 5725 5722 5719 5715 5713 5711 5708 5708 5705
5711 5709 5726 5733 5735 5732 5735 5737 5725 5713 5713 5720 5729 5727 5730 5739 5742 5744 5746 5747 5749 5750 5750 5750 5750 5750 5748 5746 5744 5741 5738 5735 5732 5730 5728 5726 5723 5720 5718 5714 5712 5710 5708 5706
5722 5716 5730 5736 5741 5742 5734 5735 5742 5735 5728 5723 5725 5728 5733 5740 5739 5740 5740 5742 5742 5743 5744 5745 5745 5746 5746 5744 5742 5740 5737 5734 5731 5730 5728 5726 5724 5720 5718 5715 5713 5711 5709 5706
5737 5721 5727 5734 5740 5737 5744 5741 5737 5731 5716 5710 5714 5720 5723 5727 5728 5732 5733 5734 5735 5737 5740 5740 5741 5742 5743 5742 5741 5739 5736 5734 5731 5729 5727 5724 5722 5720 5717 5715 5713 5711 5709 5706
5741 5730 5724 5731 5731 5733 5733 5733 5734 5732 5729 5716 5706 5713 5726 5724 5724 5725 5727 5729 5730 5731 5733 5734 5736 5737 5738 5738 5737 5735 5734 5731 5729 5727 5726 5723 5721 5719 5716 5714 5712 5709 5708 5706
5738 5738 5727 5729 5736 5740 5741 5739 5737 5726 5720 5723 5718 5713 5727 5725 5724 5723 5724 5725 5726 5727 5729 5730 5731 5732 5732 5732 5733 5732 5731 5729 5727 5725 5723 5721 5719 5717 5715 5713 5711 5710 5708 5706
5738 5735 5721 5718 5724 5732 5733 5732 5735 5736 5730 5723 5715 5713 5725 5724 5721 5720 5719 5721 5723 5723 5724 5725 5725 5726 5726 5726 5727 5727 5726 5725 5724 5722 5720 5719 5717 5715 5713 5712 5711 5709 5707 5705
5739 5738 5730 5719 5726 5732 5728 5725 5728 5731 5724 5721 5722 5718 5718 5717 5715 5715 5715 5717 5718 5719 5719 5719 5719 5720 5720 5721 5722 5722 5721 5721 5720 5719 5717 5715 5715 5713 5711 5710 5708 5707 5706 5704
5741 5735 5733 5731 5731 5731 5729 5727 5726 5728 5731 5726 5726 5720 5718 5715 5713 5711 5711 5712 5712 5712 5712 5713 5713 5714 5715 5715 5716 5716 5715 5715 5716 5714 5713 5711 5711 5710 5708 5707 5705 5704 5702 5701
5738 5732 5730 5723 5724 5726 5724 5726 5725 5724 5725 5725 5720 5716 5720 5717 5713 5710 5708 5707 5706 5705 5705 5706 5707 5707 5708 5709 5710 5709 5709 5710 5710 5708 5707 5706 5705 5704 5702 5702 5701 5700 5698 5697
5731 5731 5723 5721 5719 5719 5717 5727 5725 5723 5725 5724 5718 5718 5713 5709 5705 5704 5702 5702 5700 5699 5699 5700 5701 5701 5701 5703 5703 5702 5703 5703 5703 5702 5700 5699 5699 5697 5696 5696 5695 5693 5693 5692
5727 5726 5724 5719 5712 5700 5725 5728 5725 5720 5718 5721 5718 5715 5711 5706 5702 5700 5700 5698 5695 5694 5693 5693 5694 5694 5696 5696 5696 5696 5696 5695 5694 5693 5692 5692 5691 5690 5689 5689 5688 5687 5688 5687
5723 5721 5717 5714 5709 5714 5715 5719 5718 5715 5712 5716 5713 5709 5706 5704 5700 5697 5695 5692 5690 5688 5687 5686 5687 5687 5688 5687 5687 5687 5687 5686 5684 5682 5682 5683 5683 5682 5681 5680 5680 5680 5680 5680
5710 5717 5716 5709 5703 5705 5721 5722 5721 5716 5707 5713 5712 5706 5702 5699 5696 5695 5690 5686 5684 5681 5680 5679 5679 5679 5678 5677 5677 5677 5676 5675 5673 5672 5672 5673 5673 5672 5672 5672 5672 5673 5672 5671
5703 5704 5705 5706 5706 5717 5719 5717 5714 5702 5712 5713 5710 5705 5700 5697 5698 5692 5685 5680 5677 5674 5672 5671 5670 5668 5667 5667 5667 5666 5665 5663 5662 5661 5661 5661 5662 5662 5663 5663 5663 5663 5663 5662
5711 5706 5704 5704 5700 5708 5711 5709 5709 5713 5713 5710 5705 5702 5697 5693 5687 5682 5677 5673 5669 5667 5664 5662 5661 5659 5657 5656 5656 5654 5652 5651 5651 5650 5650 5650 5650 5650 5651 5650 5650 5651 5650 5650
5707 5711 5712 5711 5709 5709 5709 5710 5709 5708 5705 5702 5698 5694 5688 5682 5677 5673 5669 5665 5662 5659 5656 5653 5651 5649 5648 5646 5644 5641 5640 5639 5638 5638 5637 5637 5637 5637 5636 5636 5636 5636 5636 5636
5701 5698 5698 5698 5700 5699 5699 5700 5699 5698 5696 5693 5690 5685 5680 5674 5670 5665 5661 5657 5653 5650 5647 5644 5642 5639 5638 5635 5633 5630 5628 5626 5626 5625 5624 5623 5623 5622 5621 5619 5620 5620 5620 5620
5697 5691 5692 5693 5694 5689 5689 5691 5690 5688 5686 5683 5679 5675 5670 5666 5661 5657 5653 5649 5645 5641 5638 5634 5631 5627 5625 5623 5620 5617 5615 5613 5611 5611 5609 5608 5606 5604 5603 5603 5602 5602 5603 5602
5690 5689 5688 5691 5694 5691 5687 5685 5682 5677 5674 5672 5668 5664 5660 5656 5652 5648 5644 5639 5635 5630 5627 5623 5619 5615 5613 5610 5607 5603 5600 5597 5595 5594 5592 5590 5587 5585 5585 5585 5588 5589 5586 5588